Location: El Manguito
(10.2358°N, 67.3634°W)
Time: 14:55:19
(UTC+00:00)

Cosmos 1271 Rocket - Pass Details

Date: 01 April 2023
Orbit: 488 x 528 km, 81.2° (Epoch: 02 June)

Event Time Altitude Azimuth Distance (km) Brightness Sun altitude
Rises 23:13:36 0° 185° (S) 2,612 6.3 -9.0°
Reaches altitude 10° 23:15:44 10° 185° (S) 1,719 5.3 -9.6°
Maximum altitude 23:19:30 89° 101° (ESE) 506 2.6 -10.5°
Drops below altitude 10° 23:23:13 10° 6° (N) 1,692 5.3 -11.4°
Sets 23:25:19 0° 6° (N) 2,568 6.3 -11.9°
